Theta_e
354 354 357 354 355 353 346 340 318 324 323 315 316 320 318 331 332 329 327 332 329 335 338 337 338 337 335 331 331 334 335 324 331 314 311 335 346 348 351 352 354 354 354 355 356 357 360 363 364 364 364 367 366 366 366 366 367 367 367 367 366 367 366 366 366 366 365 365 363 364 363 363 363 363 363 363 363 363 363 362 362 361 362 361 362 362 362 362 361 362 362 362 362 362 362 361 361
352 350 352 356 349 346 331 340 320 317 319 315 316 325 325 331 329 327 328 330 335 336 336 341 338 338 341 337 337 335 332 336 337 335 339 344 348 349 352 354 355 353 354 355 357 357 358 362 365 365 365 367 366 366 366 367 366 367 367 367 367 366 365 366 366 366 365 365 364 363 363 363 364 364 364 364 363 362 362 362 362 362 362 362 361 362 362 362 362 362 362 362 362 362 361 361 360
350 349 349 355 350 343 340 337 316 313 312 307 312 324 332 326 326 329 332 332 335 336 339 338 339 340 337 337 331 332 324 339 338 340 338 346 342 346 352 355 356 355 355 356 356 356 357 361 364 365 365 367 366 366 366 366 367 367 367 366 366 366 366 365 366 366 365 364 364 364 363 363 364 364 363 363 363 362 362 363 363 362 362 362 362 362 362 362 362 362 363 362 361 361 361 361 361
351 350 347 348 334 343 328 327 321 315 311 313 314 325 327 328 329 333 335 335 337 335 337 337 335 339 335 330 331 336 333 333 340 339 337 341 343 349 352 355 357 355 355 355 355 355 356 362 365 366 366 366 365 366 366 367 367 367 366 366 366 366 365 365 366 365 364 364 364 363 364 364 363 364 363 362 362 362 362 362 362 363 362 362 363 362 361 361 361 362 364 363 362 362 361 362 360
350 351 353 345 338 327 327 324 320 316 311 316 314 324 328 331 332 332 332 337 335 337 335 336 333 339 338 335 336 329 331 339 341 344 341 346 352 351 354 356 355 353 353 354 354 354 357 364 366 366 365 366 366 366 367 367 367 367 366 365 366 365 365 366 366 366 365 365 365 364 364 364 364 364 363 363 363 362 363 362 363 363 363 363 363 362 362 362 362 362 363 363 363 363 361 361 361
351 351 353 351 332 342 333 319 317 315 320 327 322 323 331 333 332 332 334 337 338 337 337 334 331 333 331 334 338 333 339 331 341 343 345 346 351 354 355 356 354 353 353 354 354 355 358 365 366 365 365 366 366 367 367 367 366 366 366 365 366 365 365 366 366 366 365 364 364 365 365 365 364 364 363 363 363 362 362 362 363 363 362 361 362 362 362 362 362 360 361 362 362 363 362 361 361
349 348 346 345 341 340 322 318 316 320 327 328 325 329 332 333 335 334 332 333 336 336 338 333 334 333 328 334 338 341 345 345 342 343 349 350 353 354 355 354 353 352 353 354 355 356 359 366 366 366 367 366 366 367 367 367 366 366 366 366 366 366 366 366 366 366 365 365 364 365 365 364 363 363 364 364 363 363 363 363 362 362 362 362 362 361 362 363 361 361 362 362 361 362 362 361 361
356 341 339 330 326 328 320 321 319 323 325 330 331 331 332 333 336 334 331 332 328 331 335 334 337 331 329 340 329 340 345 346 347 350 351 352 353 354 354 354 352 352 354 356 357 358 364 366 367 366 366 367 367 367 367 366 366 366 366 366 366 366 366 365 365 365 365 364 364 365 365 363 362 363 364 364 363 364 363 362 362 362 362 361 361 363 362 362 362 362 362 362 362 362 362 362 360
349 343 346 332 320 324 318 316 319 330 326 330 331 337 337 336 337 333 331 334 332 333 333 334 335 327 329 332 332 340 343 348 349 352 351 352 352 353 353 353 352 353 356 358 359 360 363 366 366 366 367 367 367 366 367 367 367 366 366 366 366 366 366 365 364 364 364 364 364 364 364 364 363 363 364 363 363 363 363 362 362 362 362 361 361 362 362 362 362 362 362 362 362 362 362 363 362
346 342 329 324 322 313 316 315 314 323 328 332 334 334 337 336 335 338 331 330 332 333 334 337 336 330 334 330 333 338 341 348 348 348 350 352 352 352 352 354 355 356 357 358 360 361 362 367 366 366 366 367 367 366 367 367 366 366 366 366 365 365 364 364 364 364 363 363 363 364 364 364 363 363 363 363 364 363 364 363 363 363 363 363 363 362 362 362 362 362 363 363 362 363 363 363 362
334 340 339 324 312 311 311 315 318 323 325 331 332 335 341 337 335 333 333 331 334 332 335 337 332 332 334 333 334 345 348 348 346 344 350 351 351 351 352 355 357 358 357 359 360 361 362 363 367 366 366 367 367 366 367 366 366 367 367 366 366 364 364 364 364 363 363 363 363 363 363 364 364 364 364 364 364 364 364 364 364 364 364 364 364 363 364 364 364 363 363 363 363 363 363 363 362
330 329 332 316 313 313 315 317 320 322 327 331 331 334 340 337 335 331 332 330 332 333 332 337 331 337 332 332 333 342 346 346 346 348 350 351 350 351 353 356 357 358 359 360 361 360 361 363 364 366 366 368 367 367 366 366 367 367 367 366 366 364 364 364 364 364 363 363 363 364 364 364 364 365 364 365 364 364 364 364 364 364 364 364 364 364 364 364 364 364 364 364 364 364 364 362 361
331 332 324 316 315 317 320 320 319 322 323 324 326 332 338 336 332 332 332 332 333 331 332 337 338 338 329 331 338 343 342 345 348 349 350 349 349 351 354 356 357 358 359 360 359 360 361 361 362 362 364 368 367 367 366 366 367 368 367 366 365 365 365 364 364 364 364 364 363 364 364 365 365 364 365 364 364 364 364 364 364 364 364 364 365 364 364 364 364 364 364 364 364 363 363 362 361
333 331 326 315 323 321 319 319 320 318 320 326 337 336 336 333 335 335 333 331 331 331 337 340 338 338 332 334 335 336 341 347 348 350 349 349 350 352 354 357 357 357 359 359 359 359 360 361 361 361 362 362 361 366 366 367 367 368 368 366 365 365 365 364 364 364 364 364 365 365 365 365 365 365 365 365 365 364 364 364 363 364 364 364 364 365 364 364 364 364 364 364 363 364 363 363 362
333 337 327 320 318 319 321 316 318 318 319 329 333 336 335 338 340 336 333 332 332 339 340 343 340 336 327 331 330 335 340 346 349 350 349 350 351 351 355 356 356 356 358 359 360 359 360 360 360 360 361 361 362 363 362 364 368 368 368 366 365 365 365 364 364 364 365 365 365 365 365 365 364 365 366 365 365 364 363 363 363 363 363 364 364 363 364 364 364 363 363 363 364 363 361 362 363
338 334 329 319 314 316 319 316 321 317 317 329 333 336 336 336 338 335 337 338 335 340 339 333 342 333 336 334 335 341 344 347 349 349 350 350 351 353 354 354 354 355 356 358 359 359 360 359 359 359 361 362 362 361 362 362 367 368 368 367 366 365 365 364 364 365 365 365 365 364 364 365 364 363 365 363 364 364 363 361 363 363 363 363 364 364 364 363 363 363 363 363 363 363 363 361 361
340 335 320 317 314 317 318 314 319 314 322 330 335 333 329 329 336 338 340 341 334 334 336 338 336 342 337 338 342 345 346 348 349 348 348 348 349 349 351 351 351 353 355 356 357 358 359 359 358 359 360 361 361 361 362 362 365 368 367 367 366 365 364 364 365 365 365 365 364 364 364 362 359 359 360 360 363 363 362 363 363 363 363 364 363 364 363 363 363 363 363 363 363 363 362 362 362
334 325 320 316 318 318 321 320 322 326 325 329 330 332 331 327 332 335 336 335 336 336 335 337 340 340 342 343 346 347 347 346 346 346 345 345 346 345 347 348 349 348 352 354 356 358 358 358 357 358 360 360 360 361 362 363 364 366 362 362 363 362 364 364 362 361 365 361 365 363 359 362 358 357 358 365 362 361 361 363 363 363 363 363 364 363 363 363 363 363 362 363 363 363 363 360 362
328 322 319 316 318 321 326 325 326 326 326 330 332 332 331 329 332 333 329 330 334 332 333 335 335 339 342 344 344 345 345 345 345 346 345 344 344 343 344 346 346 348 349 352 354 356 357 357 357 358 359 360 360 360 362 362 362 362 362 362 363 366 366 364 362 365 360 360 360 360 362 360 359 358 360 364 363 365 364 362 363 364 364 363 364 364 363 363 363 363 363 363 362 363 361 356 356
329 321 317 319 324 325 327 327 327 329 330 329 330 330 331 332 332 335 329 329 332 330 329 331 333 334 337 341 343 343 344 344 345 345 345 345 345 344 344 345 345 346 348 350 352 356 356 356 357 357 358 358 359 359 361 361 360 361 361 361 361 362 363 364 361 361 360 359 360 360 360 360 360 358 367 366 365 361 359 363 363 363 364 364 363 364 364 363 363 363 363 363 366 369 358 358 357
326 323 317 320 326 323 327 328 329 329 331 330 329 331 328 330 332 331 329 326 328 331 333 332 332 335 337 340 342 343 343 343 344 345 345 344 344 346 346 346 346 346 348 351 352 353 355 356 356 356 358 357 358 358 359 359 360 360 360 360 360 360 359 360 360 359 360 359 359 360 360 361 361 359 361 360 361 358 355 355 358 359 361 359 364 358 360 362 363 357 359 364 357 358 358 356 357
324 322 326 325 326 323 329 329 329 327 329 328 328 327 326 331 332 330 330 324 324 331 335 336 337 338 338 339 341 342 343 343 343 343 344 344 343 344 346 347 348 348 349 348 350 353 355 356 356 356 357 356 357 357 358 361 360 359 359 359 359 358 359 359 358 359 359 360 359 360 361 360 360 359 360 358 357 356 355 353 356 356 357 359 365 356 357 357 355 354 356 357 358 358 357 357 356
318 321 323 326 325 323 333 328 328 328 327 327 326 328 329 329 328 330 329 328 331 338 338 338 339 340 341 342 342 341 342 342 342 342 343 343 343 344 346 347 347 345 347 348 351 353 355 355 356 356 355 355 355 356 358 360 358 359 359 358 358 357 357 358 358 357 358 360 359 361 359 357 358 357 358 358 357 357 353 351 355 357 358 358 362 357 356 357 357 355 355 356 356 357 356 356 357
323 318 321 323 326 324 331 327 328 328 327 326 328 330 326 327 324 330 328 332 336 339 340 339 340 342 343 340 341 340 341 342 342 344 344 344 344 345 347 347 347 347 347 348 350 352 355 354 355 356 355 355 354 355 356 356 355 356 357 360 359 357 357 357 357 356 358 360 359 360 361 356 357 356 357 356 356 357 354 351 355 357 359 356 361 357 356 353 355 356 355 356 356 354 355 355 354
321 320 323 323 326 327 329 327 326 327 328 330 328 326 326 327 327 329 327 332 338 339 340 339 340 340 341 340 340 340 340 342 342 343 345 345 346 347 348 348 348 347 345 348 350 352 353 355 355 355 354 354 354 354 354 354 353 354 355 355 355 360 357 357 356 357 356 359 360 360 361 356 355 356 356 356 354 356 357 357 357 357 356 355 357 355 356 353 354 356 358 359 354 354 355 353 351
322 322 323 322 326 328 328 327 326 327 328 329 326 325 327 329 331 326 329 333 338 339 339 338 338 338 338 339 339 339 340 340 342 342 343 345 346 346 346 347 347 346 347 348 350 351 353 354 354 354 354 354 353 353 352 351 351 351 352 353 353 358 355 356 355 355 356 358 359 360 361 356 354 355 356 355 353 354 356 357 359 356 355 354 356 354 357 355 355 356 357 357 356 353 352 352 354
323 322 322 321 323 325 328 326 327 327 327 327 324 324 325 330 327 318 330 337 339 338 337 337 336 335 336 337 338 339 339 340 341 343 344 344 345 345 346 346 346 346 348 347 350 351 353 353 353 354 353 355 353 352 350 349 351 350 352 352 352 353 354 355 355 354 356 358 359 359 359 358 354 354 355 354 353 355 355 354 357 357 356 356 355 353 356 357 357 355 354 355 353 354 354 355 357
323 322 319 321 322 323 328 327 326 327 324 326 326 326 325 328 325 322 332 337 339 336 335 335 335 335 335 336 337 339 339 341 342 343 342 342 343 345 345 345 345 346 347 347 349 352 353 353 353 353 353 354 353 351 351 348 349 349 351 351 351 353 354 353 353 353 357 358 359 359 358 357 359 353 354 354 354 355 353 352 355 356 355 356 355 353 353 361 359 357 359 359 358 355 354 353 356
322 321 314 314 319 319 324 325 325 326 323 327 327 328 320 322 319 329 335 337 337 336 335 335 335 335 335 336 337 338 339 340 342 342 343 344 346 347 345 347 346 346 347 348 349 351 351 352 352 352 353 353 352 351 349 347 348 349 351 350 350 354 353 353 353 353 356 358 358 358 358 358 361 354 356 355 360 355 353 353 354 356 356 356 355 356 357 359 360 359 356 361 358 354 353 351 354
319 317 313 311 312 314 319 327 325 324 324 327 327 310 313 318 325 333 336 336 336 334 334 335 335 335 335 336 336 337 339 340 340 342 344 345 347 347 346 348 348 347 347 348 349 349 351 352 353 352 352 352 353 352 351 347 346 348 352 351 352 354 353 352 355 354 356 357 358 357 358 359 360 359 357 355 356 354 354 354 354 355 356 357 357 360 359 358 356 353 353 355 361 355 348 349 349
310 313 313 305 304 305 318 322 324 320 326 326 326 311 312 316 327 334 336 336 334 332 333 334 335 335 335 336 336 337 338 340 340 342 344 346 347 348 347 349 349 348 348 348 347 348 351 351 353 352 353 351 354 352 352 349 347 348 353 351 351 354 354 352 353 355 355 357 357 356 358 360 360 361 360 356 355 354 354 354 355 357 358 359 357 361 360 355 354 353 359 350 349 350 350 352 352
310 305 302 305 304 305 315 321 322 318 322 326 323 311 312 318 326 333 335 335 334 332 333 333 334 334 335 336 336 337 338 339 341 342 344 345 346 347 347 348 349 349 348 348 349 349 349 350 352 351 352 351 353 353 353 351 349 350 355 358 352 353 354 353 352 354 354 357 357 356 358 359 358 360 360 357 355 353 354 354 356 357 360 361 360 361 358 355 354 356 359 352 350 350 354 350 346
307 304 302 303 304 306 311 316 320 323 321 323 320 311 313 318 327 331 334 333 333 332 332 332 333 334 334 335 336 336 337 338 340 341 343 343 346 347 347 349 349 349 349 349 349 348 349 350 352 350 351 351 352 354 353 353 352 352 354 356 354 353 353 352 353 354 356 358 357 356 358 360 356 360 359 358 356 355 355 356 355 358 363 360 358 358 357 357 355 360 353 358 351 350 349 351 347
300 304 301 305 305 306 304 314 318 320 319 315 319 315 313 319 326 328 331 332 331 330 331 332 332 333 333 334 335 335 336 337 338 340 342 343 345 347 347 351 350 350 350 350 351 349 349 350 351 351 352 353 353 353 352 353 353 353 353 355 357 353 353 353 352 354 356 357 358 356 358 360 358 359 359 358 356 356 356 357 357 360 362 357 356 357 357 357 356 356 351 352 354 350 347 343 338
299 300 301 302 305 307 308 308 313 317 318 316 316 316 315 319 325 327 329 331 330 330 331 331 331 332 332 333 334 335 335 336 338 340 343 343 344 346 347 349 349 350 351 351 351 351 351 352 352 352 352 353 353 354 352 353 353 352 352 353 355 354 354 352 352 353 356 357 357 358 358 359 361 359 359 359 356 359 356 357 358 362 361 358 358 357 356 358 357 353 352 351 355 353 350 341 336
304 304 302 303 302 303 305 312 316 316 315 314 314 313 315 319 323 325 327 329 329 329 331 331 331 331 332 333 333 334 335 336 339 341 343 344 344 345 346 348 348 350 351 351 351 351 351 352 352 353 353 354 353 354 352 352 352 352 349 350 352 353 353 353 351 352 355 357 358 359 359 358 360 359 359 358 356 357 356 356 358 362 360 359 357 353 351 352 354 352 350 352 349 350 352 344 338
306 306 305 304 304 305 309 310 315 316 315 314 314 315 316 320 322 324 326 328 327 328 329 330 331 330 331 332 333 333 334 335 339 341 342 343 343 344 346 346 347 349 349 351 350 350 350 351 352 352 353 353 353 352 351 351 349 351 349 349 350 351 351 352 352 351 353 356 358 359 360 359 359 360 360 358 356 362 356 356 358 360 360 359 357 355 354 355 354 353 354 356 350 346 344 339 337
305 304 304 304 304 303 309 309 313 316 313 312 315 314 314 319 322 324 326 326 324 326 327 329 330 330 331 332 332 333 334 337 338 339 340 342 343 343 344 345 347 345 347 349 349 350 350 350 351 353 353 352 352 353 352 352 351 352 349 348 350 350 350 351 351 350 351 355 358 359 360 359 358 359 361 359 357 357 356 356 357 359 359 358 357 357 355 362 358 353 353 349 348 348 340 342 337
303 302 302 301 302 305 308 310 312 313 314 310 314 313 313 319 322 324 325 325 326 327 327 328 329 328 330 332 332 333 334 334 335 337 339 340 342 342 342 344 345 346 347 348 349 349 349 349 350 353 353 352 352 353 352 351 352 353 351 350 351 350 352 353 353 354 354 353 358 359 360 359 359 359 360 360 357 356 356 356 357 359 358 360 357 355 358 356 354 353 351 345 345 346 347 344 337
302 301 299 298 303 302 300 307 309 312 311 308 312 312 313 318 323 323 325 326 326 328 328 329 330 328 329 331 332 332 333 333 333 334 336 339 341 341 342 342 344 346 346 347 347 348 348 349 348 351 352 353 352 353 354 353 353 353 352 351 352 352 351 353 353 353 352 354 356 358 360 359 359 359 360 360 359 357 356 356 359 360 359 360 358 355 356 354 353 350 349 351 344 340 339 336 347
303 302 300 300 302 303 303 304 307 308 310 313 312 311 310 312 318 320 324 327 326 327 328 328 329 330 332 333 334 334 333 333 333 334 335 337 339 340 341 341 343 344 345 346 347 347 348 347 348 351 352 353 352 355 354 354 354 351 351 350 351 351 352 351 349 348 349 353 356 357 358 359 360 360 360 360 359 358 357 356 360 360 360 360 358 357 356 355 354 352 352 351 347 341 340 334 340
301 303 303 303 304 304 305 306 304 301 299 308 311 302 303 309 316 319 322 323 323 326 325 325 326 328 330 331 332 334 335 335 334 334 335 337 338 340 341 341 342 343 345 347 348 348 348 348 349 351 352 353 352 354 354 354 352 350 348 346 345 345 345 346 346 346 347 350 355 357 359 359 360 359 360 360 360 359 357 357 360 360 360 360 359 358 357 355 354 352 352 351 349 346 341 333 332
298 300 305 304 304 304 304 304 303 294 295 303 313 303 298 304 309 318 320 321 321 323 323 325 326 328 330 331 332 333 334 335 335 336 336 336 338 339 339 340 341 342 345 348 348 348 349 348 349 351 351 352 353 354 354 354 351 350 349 348 347 346 344 346 348 349 348 349 355 356 358 359 360 359 360 360 359 359 358 358 359 359 361 361 362 357 356 356 356 354 354 350 349 352 338 332 331
298 304 305 305 304 303 303 304 302 297 305 306 309 309 301 299 305 316 320 319 319 320 321 323 326 328 330 331 333 334 335 336 335 335 336 337 338 338 338 340 340 342 345 347 347 348 348 348 349 350 351 353 353 354 354 354 351 350 349 348 348 346 346 345 347 348 348 350 353 355 357 359 359 360 359 359 359 359 359 359 359 358 360 361 362 358 357 358 357 357 355 353 351 352 343 334 331
302 305 306 305 304 304 304 303 301 300 299 295 300 308 301 299 306 311 319 315 316 317 319 322 325 328 329 331 333 334 336 336 336 336 336 336 337 338 339 339 341 343 345 346 346 347 348 349 349 350 351 353 352 354 354 353 353 350 349 348 347 347 347 347 348 348 348 351 350 353 356 357 358 359 359 359 358 358 360 360 360 359 359 360 364 360 358 359 357 356 354 352 350 350 345 339 333
307 307 307 308 307 306 305 302 300 300 296 294 297 303 299 295 302 306 312 315 314 317 320 322 325 327 329 330 332 334 335 337 338 338 338 337 338 339 340 340 341 342 344 347 347 347 348 348 349 349 349 352 352 353 354 352 352 352 349 348 346 345 348 347 347 346 348 348 347 350 354 355 357 357 358 358 358 358 359 360 361 360 360 361 363 360 360 359 358 356 355 354 352 350 345 344 334
308 308 305 303 303 304 304 302 299 296 292 294 299 301 299 292 299 305 304 309 315 318 320 323 325 327 329 330 332 333 334 336 337 338 338 338 339 339 340 339 340 342 344 345 345 346 348 348 348 348 349 351 352 352 353 351 351 351 348 347 346 345 346 348 345 344 346 348 346 348 352 354 355 355 357 358 358 358 358 360 362 362 362 363 363 360 360 359 359 357 356 354 353 351 344 343 343
307 303 303 300 298 298 297 298 298 291 288 294 298 299 300 291 293 300 309 313 317 320 319 321 323 325 328 330 331 333 334 336 337 338 337 338 338 337 339 339 339 341 343 344 344 345 347 347 347 347 348 350 351 352 352 351 351 350 349 347 346 346 346 349 346 344 345 347 347 346 350 352 353 355 355 356 357 358 358 359 362 362 362 361 361 361 360 360 360 358 356 354 353 349 343 345 341
306 302 299 294 289 292 288 292 290 289 287 294 297 299 296 293 295 302 307 310 313 321 322 322 324 326 328 330 331 333 334 336 337 337 337 338 337 337 337 339 339 341 342 343 344 344 347 347 347 347 347 349 350 351 351 351 350 349 349 347 346 348 346 349 349 345 346 347 348 346 349 350 352 353 354 354 356 357 357 358 359 360 362 361 362 361 359 359 359 358 356 355 353 349 344 343 340
303 300 296 292 288 287 284 285 289 288 292 297 296 298 293 295 299 304 306 310 312 321 323 325 326 327 328 330 332 333 334 335 336 337 337 337 338 337 338 339 340 341 343 343 344 345 346 347 346 347 347 349 350 350 350 350 350 349 349 348 347 348 348 347 350 348 347 347 350 347 348 351 352 353 354 354 356 357 357 358 360 360 361 362 361 360 359 358 359 357 357 355 353 351 347 343 342
302 304 299 296 293 290 286 286 287 287 287 292 297 294 290 294 297 303 306 309 311 320 325 326 327 328 330 331 332 333 334 335 336 336 337 337 338 338 339 339 340 342 343 344 345 345 345 346 346 347 347 348 349 349 349 349 349 349 349 349 348 348 348 348 348 352 349 348 350 350 349 351 352 354 354 356 357 357 357 358 359 360 360 361 361 360 360 359 358 357 357 356 354 351 348 345 342
303 304 302 296 296 294 288 288 289 291 291 291 293 291 293 298 302 308 308 308 309 315 323 326 326 327 329 330 331 332 334 335 336 336 336 337 338 339 340 340 341 342 344 344 345 346 345 346 347 347 347 348 349 350 349 349 349 349 349 349 349 349 350 350 349 351 352 351 350 352 351 351 354 355 355 356 356 357 357 357 359 359 360 361 361 360 358 358 357 356 356 356 353 356 348 346 343
300 301 297 299 301 300 295 298 297 295 292 290 294 297 297 298 300 303 304 307 308 313 322 325 326 327 328 329 330 331 333 335 336 336 336 337 338 339 340 341 341 343 344 345 345 347 346 347 347 347 347 349 349 350 349 349 349 348 348 349 349 349 349 349 349 349 351 353 351 352 353 353 354 356 356 357 356 356 357 357 357 358 359 360 360 360 359 358 357 356 356 355 354 355 350 347 345
300 297 300 303 305 302 296 287 291 290 285 288 294 293 291 293 291 301 302 302 305 308 321 324 326 327 327 329 330 331 332 334 336 337 337 338 339 339 340 342 343 343 345 345 346 348 348 348 348 348 347 347 349 350 349 349 348 348 348 348 349 350 350 350 351 350 351 353 353 352 352 354 354 356 357 358 357 356 356 361 357 358 358 360 360 360 359 357 357 357 356 355 356 355 353 349 347
304 302 305 301 291 294 294 293 287 285 286 286 290 294 294 293 294 298 299 302 302 304 318 323 324 326 327 328 330 332 333 334 335 335 336 338 339 339 340 341 344 344 346 347 348 349 350 350 350 350 348 349 349 350 351 351 350 349 349 349 349 350 351 351 352 352 352 352 353 353 352 353 355 356 358 358 357 356 356 357 357 357 358 358 359 359 359 358 356 356 356 355 355 354 354 350 348
306 305 304 303 298 296 292 295 291 291 285 289 287 292 290 298 296 300 301 303 304 304 308 322 324 326 327 328 330 331 332 333 334 335 337 338 339 340 340 341 342 344 345 347 348 350 350 351 351 350 351 350 350 350 351 350 350 350 350 350 350 351 351 352 352 352 352 351 353 354 354 352 354 357 357 358 358 357 356 356 358 358 358 358 358 359 358 358 356 355 356 355 355 354 353 352 350
299 299 299 301 301 299 298 298 293 290 287 286 287 287 291 297 303 305 304 304 305 305 304 320 325 327 328 329 330 331 332 333 335 336 337 338 339 340 341 341 343 345 347 348 349 349 350 351 351 352 350 350 350 351 351 351 351 350 350 350 350 351 351 352 352 353 352 352 353 355 355 354 354 355 357 357 358 358 357 357 357 358 358 358 358 358 358 357 356 355 356 357 355 354 353 353 352
301 299 297 300 297 293 293 289 298 295 291 285 287 288 293 302 308 307 306 307 307 307 307 313 325 327 328 329 330 331 332 333 335 336 337 338 339 340 341 342 342 343 345 346 349 350 351 351 352 352 352 351 351 351 351 352 352 351 350 350 351 351 352 352 351 352 352 352 352 354 356 356 354 355 357 357 357 358 358 357 356 357 358 358 358 358 358 357 356 356 355 357 356 354 353 353 352
Wind_Speed
11 6 4 4 3 2 3 1 1 1 1 2 3 1 1 1 5 3 4 4 1 1 1 1 4 3 2 2 7 6 5 9 1 5 4 3 10 13 9 12 11 10 9 7 5 7 8 9 13 17 16 16 16 15 15 15 15 15 15 15 15 15 16 16 16 16 16 15 15 15 15 15 15 15 14 14 14 14 13 13 13 13 13 12 12 11 11 11 11 12 12 12 12 12 12 12 11
9 7 5 3 3 3 2 1 1 0 2 2 4 0 1 1 2 3 4 2 2 2 2 2 2 2 7 14 10 8 6 6 3 4 5 8 13 8 11 13 13 12 9 7 6 7 5 7 13 16 17 16 15 15 15 15 15 15 15 15 15 15 16 16 16 16 15 15 15 15 15 14 15 14 14 13 13 13 13 13 13 12 12 12 11 11 11 11 11 11 11 11 11 11 11 11 11
9 8 6 3 2 2 1 1 0 1 1 2 2 1 5 2 2 3 2 3 2 3 3 6 9 6 6 7 5 1 1 5 10 9 8 12 15 7 12 13 12 12 10 7 7 6 4 7 12 15 17 16 16 15 15 15 15 14 14 15 15 15 15 16 15 15 15 15 15 15 15 15 14 14 13 13 13 13 12 12 12 12 12 12 11 11 11 11 10 11 10 10 10 11 11 11 11
8 6 7 6 3 0 1 2 1 1 1 2 3 1 1 4 2 1 0 2 2 5 2 4 4 2 3 5 7 11 7 5 4 12 10 11 9 12 13 13 12 10 9 7 7 6 5 11 12 15 16 16 16 15 15 15 14 14 14 15 15 15 15 16 16 15 15 15 15 15 15 14 14 14 14 13 13 13 13 12 12 11 11 12 11 11 11 10 10 9 10 10 10 10 10 11 10
7 7 5 3 2 2 2 1 0 2 1 1 0 1 3 4 4 3 3 0 2 1 2 3 3 1 5 9 4 2 6 6 6 2 9 7 12 14 14 13 12 11 9 9 8 7 7 14 13 16 17 17 17 16 15 15 14 14 14 14 14 14 15 16 15 15 15 15 15 15 15 14 12 13 13 13 13 13 13 13 12 12 11 11 11 10 10 11 11 10 10 10 10 10 10 10 10
6 5 3 1 1 1 1 1 1 2 3 3 2 1 4 5 3 3 2 3 2 1 4 7 5 4 4 4 3 3 11 8 7 6 11 11 17 16 15 13 12 11 10 9 8 7 8 15 16 18 18 18 17 16 16 15 14 14 14 14 14 14 15 16 15 14 14 14 14 14 14 14 13 13 14 13 13 13 13 13 13 12 12 11 10 11 10 10 12 11 10 11 10 10 10 10 10
5 4 2 1 2 0 2 2 3 2 3 5 5 4 5 8 5 5 5 3 0 3 4 6 14 11 8 5 11 5 6 8 8 9 8 16 17 16 15 13 12 12 11 9 9 8 10 15 19 19 19 18 17 17 16 15 15 14 14 13 14 14 14 15 16 15 14 14 14 14 14 13 13 13 12 13 13 13 12 12 12 12 12 11 11 11 11 10 11 11 11 11 10 10 10 10 10
3 2 3 1 1 1 2 3 4 2 2 2 5 5 8 9 7 5 7 5 6 3 6 8 4 11 9 5 6 4 11 2 10 14 18 16 17 16 14 13 13 12 11 10 9 8 12 18 18 19 19 18 17 17 16 16 15 14 14 13 13 14 14 15 15 15 14 14 14 14 13 13 14 14 14 13 13 12 12 12 12 12 12 11 11 11 11 11 10 10 11 11 10 10 10 10 10
5 1 1 1 1 0 2 3 1 1 3 2 2 2 7 10 9 8 8 5 4 7 9 11 8 11 3 12 7 5 8 13 14 18 18 18 17 16 12 13 13 12 12 10 9 9 10 17 19 19 19 18 18 17 17 17 16 15 14 13 13 13 14 14 15 15 15 14 13 13 13 13 13 13 13 13 13 13 12 12 12 11 11 11 11 11 11 10 10 10 10 10 10 9 9 10 9
3 3 2 1 1 2 2 3 2 2 1 0 1 3 3 8 8 3 8 6 6 11 10 8 4 14 11 12 10 6 8 15 18 17 17 17 17 15 14 13 13 14 12 10 9 10 9 18 19 19 19 18 18 17 17 17 16 15 14 14 14 14 14 14 14 14 14 14 14 13 13 13 13 13 13 13 13 12 12 11 11 11 10 10 10 10 10 10 10 10 10 10 10 10 9 10 10
2 2 3 1 0 1 2 5 0 1 2 1 1 3 2 4 5 5 6 6 8 8 11 15 12 15 12 8 5 6 15 17 18 19 17 17 16 15 13 12 13 13 12 11 10 9 9 11 20 19 19 18 18 18 17 17 17 15 14 14 14 14 13 13 13 13 13 13 13 13 13 13 12 12 12 12 12 12 11 11 11 10 10 9 9 9 9 9 9 9 9 9 9 9 10 10 10
2 2 1 1 1 1 2 2 2 1 2 2 1 1 0 1 3 5 5 10 10 13 13 9 7 14 11 8 5 11 17 16 15 17 17 17 14 15 13 11 13 12 12 12 11 9 9 9 11 17 19 18 18 18 17 17 17 16 15 14 14 14 13 13 13 13 13 12 12 12 12 12 12 12 11 11 11 11 11 10 10 10 10 9 9 9 9 9 9 9 9 9 9 8 9 10 10
3 2 1 1 2 2 3 0 2 1 1 1 5 3 4 1 3 2 3 12 12 13 9 6 18 7 8 7 8 12 17 15 15 17 18 14 14 13 12 12 12 13 12 11 10 10 10 10 9 10 13 18 17 17 17 17 16 16 15 15 14 14 13 13 13 13 12 12 12 12 12 11 11 11 10 10 10 10 10 10 9 9 9 8 8 8 8 8 8 8 8 8 9 8 8 9 9
4 4 4 2 1 3 2 2 3 2 2 1 2 5 5 3 3 4 4 9 13 10 10 16 12 13 14 11 10 11 13 16 17 18 15 14 13 13 14 12 13 13 12 11 10 10 10 9 9 9 11 10 9 14 17 17 16 16 15 15 14 14 13 13 13 12 12 12 11 11 11 11 11 11 10 10 10 10 9 9 9 8 8 8 7 7 7 7 7 7 7 7 8 8 8 8 9
7 1 1 1 3 1 2 2 7 3 1 3 3 5 2 3 2 1 7 7 9 13 13 8 13 14 9 16 11 13 16 18 18 17 15 15 15 14 13 12 13 12 11 11 10 10 11 9 9 8 8 8 8 7 7 12 16 15 15 15 14 14 13 13 13 12 12 11 11 11 10 11 10 10 10 9 9 9 8 8 8 7 7 7 7 6 6 6 6 6 6 5 6 7 7 7 8
5 3 0 2 2 2 3 2 6 7 2 4 4 7 3 5 4 4 6 4 4 13 15 8 10 1 15 6 17 20 20 20 18 16 15 16 15 12 13 13 11 11 10 10 10 8 9 9 8 7 8 8 6 6 7 8 13 16 15 15 15 14 14 13 13 12 11 11 11 10 10 8 8 6 9 6 8 8 7 5 7 7 7 6 6 6 5 5 4 5 4 5 4 5 5 6 6
5 3 3 2 6 2 3 2 4 4 2 5 4 7 7 6 3 4 6 4 13 14 9 10 7 10 17 11 19 20 21 19 17 17 17 13 12 11 10 10 10 9 8 9 9 9 9 9 9 7 8 8 7 6 6 7 10 15 13 15 15 14 13 13 12 13 11 10 9 9 8 3 2 2 4 2 6 3 5 6 6 6 6 6 5 5 4 3 3 3 3 3 4 3 3 4 4
4 5 5 6 6 2 4 1 4 9 10 7 11 8 7 7 5 5 4 10 10 13 8 7 10 8 11 16 18 20 20 20 18 18 16 14 11 10 10 10 11 10 10 9 9 9 9 8 9 8 8 8 7 6 5 6 7 11 6 7 7 9 11 11 9 5 8 3 9 6 3 2 2 1 3 5 2 3 3 6 5 5 5 5 5 4 4 3 3 3 3 2 2 3 2 2 1
8 3 6 9 4 7 4 3 9 11 8 13 11 12 12 12 12 8 10 16 13 10 10 12 13 14 15 18 21 20 21 20 18 17 18 17 13 14 12 11 12 11 10 10 9 11 9 8 9 9 8 8 8 7 6 5 6 5 5 5 5 9 7 7 4 5 3 3 3 3 3 2 3 2 2 3 3 5 3 4 4 4 4 4 4 3 3 3 3 3 3 2 2 1 1 1 0
9 5 6 9 8 6 5 3 4 13 12 13 10 11 11 11 12 12 12 14 15 12 12 13 16 19 19 19 20 20 19 18 17 18 18 16 14 13 13 14 13 13 13 11 11 9 10 9 10 9 10 9 8 7 6 5 5 5 5 5 5 5 4 4 4 3 4 3 3 3 4 3 3 3 6 8 7 3 3 5 5 4 5 5 5 3 3 3 3 2 3 3 1 1 0 0 0
5 7 7 9 9 6 8 7 7 15 18 16 14 11 11 12 10 10 11 12 13 12 16 19 21 22 21 22 21 20 19 19 18 17 17 16 14 12 12 13 13 13 12 10 9 10 11 10 10 10 9 9 8 7 7 6 5 5 5 5 5 5 4 4 4 3 4 3 4 4 4 3 4 4 3 2 3 3 2 1 1 1 1 2 3 2 1 2 1 0 2 1 1 1 1 1 2
2 12 14 12 2 8 8 7 8 10 13 13 17 18 16 12 10 10 14 10 11 15 16 18 24 25 23 23 22 19 19 19 19 19 18 18 18 16 13 11 11 11 10 11 12 11 12 11 11 9 10 9 9 8 8 7 8 6 6 5 5 4 4 5 4 4 4 5 4 4 4 3 4 4 3 2 2 4 3 3 3 2 2 2 1 2 1 0 1 0 0 1 2 3 3 3 3
9 8 11 13 9 5 3 5 6 10 8 9 8 8 7 16 12 10 12 9 8 15 17 20 23 25 24 24 22 21 20 20 20 20 19 18 18 16 14 12 14 13 12 11 11 10 11 11 11 10 10 9 9 7 7 7 7 6 6 6 6 5 4 5 5 4 5 5 5 5 5 4 4 4 4 3 3 4 4 3 3 3 3 3 2 3 2 1 1 1 1 1 3 2 2 2 4
10 10 8 11 11 13 7 8 8 5 7 5 3 7 9 11 7 10 10 6 13 16 19 20 20 19 21 21 22 23 22 21 20 19 19 20 20 18 16 15 13 11 12 12 11 11 11 13 12 12 10 10 9 8 8 7 6 7 7 6 6 6 6 5 6 5 5 6 6 5 5 5 5 4 4 4 4 3 4 4 4 3 4 3 1 2 2 2 1 1 2 2 2 2 2 3 4
12 13 13 9 12 13 8 7 7 7 9 10 6 9 11 8 8 10 9 11 15 17 18 19 20 21 20 21 21 19 20 19 19 17 14 13 15 15 14 11 13 12 13 13 12 12 13 12 12 13 11 11 9 9 9 7 7 7 6 6 6 6 6 6 6 5 5 6 6 6 5 5 5 5 5 5 3 4 4 4 4 4 3 3 2 2 2 3 3 3 2 3 2 3 2 3 3
12 15 11 9 8 9 8 8 9 11 6 7 8 9 13 12 10 10 9 14 18 19 19 20 20 21 21 21 20 20 20 21 19 18 18 14 15 16 15 13 13 14 14 14 13 12 12 13 13 14 12 11 10 10 8 8 8 7 7 7 6 6 6 7 6 6 6 6 6 6 6 6 6 6 5 5 5 4 4 4 4 4 4 4 3 3 3 3 4 2 3 3 3 2 2 3 3
5 11 14 13 11 8 11 12 11 10 8 8 8 7 17 15 11 5 11 17 19 20 20 20 21 21 20 19 18 18 20 21 21 17 15 15 16 16 16 14 14 14 13 14 13 12 12 13 13 13 11 11 9 10 8 9 8 7 8 7 6 7 7 7 6 6 6 6 6 6 5 5 6 6 5 5 5 5 5 4 4 4 3 4 4 4 3 3 3 3 3 3 2 3 4 3 1
11 11 7 12 12 10 8 11 11 7 6 8 8 6 8 15 7 9 16 20 22 21 20 20 19 18 18 19 16 16 18 18 17 18 20 19 15 15 16 14 15 14 15 15 12 12 13 15 14 13 12 12 10 10 9 9 9 8 8 7 7 7 7 7 7 6 6 7 6 6 6 5 5 5 6 5 5 5 5 5 4 4 4 4 4 4 3 3 3 3 3 3 4 4 3 1 2
11 9 11 9 9 11 8 11 11 10 6 9 6 5 9 11 9 15 19 20 20 22 20 20 18 17 17 17 14 13 16 18 16 17 19 16 15 14 17 15 15 15 11 14 13 14 15 15 14 14 12 11 11 11 10 9 9 8 8 8 8 8 7 7 7 7 7 7 6 6 6 5 5 6 6 7 6 6 5 5 4 4 4 4 4 3 3 3 2 2 2 2 3 1 0 1 0
6 8 7 8 8 12 12 11 10 13 5 10 8 6 4 12 14 18 20 21 20 20 19 18 16 16 16 16 14 12 13 16 15 16 16 15 16 16 17 16 16 14 12 11 13 15 13 11 11 11 12 12 12 10 10 9 9 8 7 8 8 8 7 7 7 7 7 6 6 6 5 5 5 4 6 6 6 5 5 5 5 5 4 4 3 2 3 3 4 2 2 0 1 1 2 3 2
6 4 3 5 5 6 11 9 14 13 8 10 12 7 8 7 19 20 21 24 23 21 20 19 18 17 16 15 14 13 14 16 15 15 17 16 15 15 16 15 16 15 12 12 15 15 15 12 11 11 12 13 12 10 11 10 9 9 8 8 8 8 7 7 6 6 6 6 6 5 5 4 4 4 4 7 6 5 5 5 5 5 4 4 3 2 3 2 2 2 1 2 1 2 2 2 1
2 2 6 3 7 5 8 16 14 15 6 10 12 7 9 10 20 24 20 22 23 21 20 20 19 17 18 16 15 15 14 14 14 14 18 17 16 15 17 17 17 15 15 14 14 14 15 14 13 13 13 14 12 10 11 10 10 9 8 8 8 8 6 7 6 6 6 5 6 5 5 4 4 4 4 5 6 5 6 6 6 4 4 4 4 3 2 3 1 1 2 1 0 2 2 3 1
3 6 5 6 5 6 2 6 9 17 9 12 14 8 5 11 21 19 20 22 20 20 19 20 20 20 19 17 16 15 13 15 14 15 17 15 16 14 15 16 17 16 16 15 15 15 14 15 15 15 16 15 13 10 10 9 9 9 7 8 9 8 7 6 6 6 6 6 6 6 5 5 4 4 4 4 5 5 5 5 4 5 4 4 4 3 3 3 2 0 1 1 1 1 2 3 5
6 2 6 6 4 3 5 1 7 12 9 9 15 10 5 14 22 22 20 20 19 18 21 20 20 18 18 17 17 16 15 16 16 16 18 16 15 17 16 16 17 16 15 16 16 16 15 14 14 14 14 14 12 10 9 9 9 8 6 6 6 7 7 6 5 5 6 6 6 7 6 5 5 4 4 4 4 4 5 5 4 4 4 4 4 3 3 2 2 2 2 1 1 0 2 2 1
7 5 4 6 4 5 6 7 4 7 12 11 11 13 7 19 22 23 23 23 22 21 20 20 21 19 17 17 18 18 17 18 18 16 18 17 17 18 16 17 17 16 14 16 16 14 13 13 12 13 14 13 12 10 8 8 8 7 6 5 5 6 6 6 5 6 6 6 7 7 6 6 6 5 4 4 4 4 5 4 5 5 4 4 4 3 3 2 2 2 2 1 1 0 1 2 0
8 5 4 4 6 6 7 10 5 10 9 12 10 12 12 21 22 22 21 22 22 21 19 18 19 19 18 18 18 18 18 20 17 17 19 17 16 17 15 16 16 16 15 15 16 15 14 12 12 12 13 13 11 9 7 7 7 8 8 6 5 6 6 7 5 6 6 6 7 7 7 7 6 6 5 5 5 4 4 5 5 4 4 4 4 3 3 3 4 3 2 1 0 1 2 1 2
4 5 6 8 7 8 9 10 8 6 8 14 14 14 14 22 22 22 22 19 17 20 20 19 20 19 19 18 19 20 19 19 17 19 18 19 18 17 16 16 15 17 16 17 17 17 16 14 14 15 14 13 12 11 10 10 10 8 8 9 9 7 7 6 6 5 7 7 7 8 8 7 7 6 6 6 6 5 4 5 5 4 4 5 5 4 3 3 3 4 2 0 1 0 0 1 1
9 6 6 9 8 9 12 12 10 8 7 10 15 14 12 23 22 24 22 21 20 21 22 22 22 21 19 21 21 20 19 14 15 16 18 18 17 18 18 16 15 18 16 18 19 19 17 16 15 13 13 14 14 13 11 11 10 10 10 10 8 7 7 7 7 5 7 7 7 8 7 7 8 7 6 6 6 5 4 5 5 6 5 5 4 3 3 3 2 2 2 1 1 1 1 2 3
8 8 7 6 8 7 10 11 10 6 11 9 15 15 12 19 21 22 24 23 21 24 24 24 25 22 18 19 21 21 17 16 17 18 19 18 21 19 17 17 17 19 19 20 19 18 18 16 14 13 13 14 14 13 11 11 9 8 9 7 9 6 5 5 5 4 5 7 8 8 8 8 8 7 7 7 6 6 5 5 6 5 5 5 4 4 3 4 4 4 3 2 0 0 1 1 3
9 9 7 9 8 5 9 12 7 7 8 7 15 16 11 14 17 22 25 22 22 24 25 25 24 24 23 23 22 21 20 19 20 20 21 20 20 19 17 17 18 18 16 17 17 19 16 15 14 14 14 14 13 14 12 10 9 8 6 7 7 8 7 5 5 4 4 6 9 8 7 8 8 8 8 7 6 6 6 5 5 5 6 4 5 5 4 4 3 3 2 2 2 1 1 0 1
12 12 9 9 11 12 11 10 2 4 7 7 12 12 9 10 15 14 19 23 21 23 23 20 20 21 23 22 20 21 22 22 21 20 19 20 21 21 20 18 18 18 17 18 18 17 14 18 17 17 14 14 13 14 13 9 8 6 5 5 5 4 3 5 5 6 5 6 7 8 9 8 9 8 8 8 7 7 6 4 5 5 6 5 5 5 5 6 6 5 5 3 3 3 3 1 1
12 15 15 14 13 13 13 12 5 4 6 6 14 6 9 9 20 22 18 16 16 16 16 16 16 15 15 18 21 20 20 20 22 23 22 22 22 20 19 18 19 18 19 18 19 19 17 16 16 16 14 13 14 15 14 11 11 11 10 9 8 7 8 8 10 11 8 8 9 8 8 9 9 8 8 8 8 7 6 6 5 5 6 6 6 5 5 4 4 4 5 5 4 3 3 2 1
10 15 17 17 15 14 12 8 1 6 7 7 11 14 7 6 12 21 19 19 21 14 17 20 18 17 17 18 19 20 20 19 19 20 19 20 21 21 21 20 20 20 19 18 18 18 18 17 16 17 15 13 13 14 15 12 11 11 13 14 12 13 12 10 9 8 7 6 6 8 9 8 9 9 8 8 8 7 6 6 6 6 6 6 5 5 5 6 6 5 4 4 5 4 3 3 4
12 9 13 13 15 16 17 9 5 6 2 5 4 9 9 8 9 19 23 24 21 17 16 16 16 18 19 19 20 20 20 20 20 21 21 21 21 23 24 23 20 21 19 18 18 17 18 18 17 17 14 13 13 13 15 14 13 13 13 12 12 11 12 11 10 9 6 5 7 8 7 8 8 8 9 8 8 8 7 7 6 6 5 5 5 6 6 6 5 3 5 5 4 4 5 5 5
6 6 11 14 15 16 15 9 7 6 4 9 5 4 5 6 10 13 23 21 18 19 18 17 18 19 20 21 21 21 22 21 21 19 21 21 22 22 21 21 21 20 18 18 17 17 17 17 17 16 15 14 13 15 15 14 13 14 13 12 11 10 10 8 8 7 7 6 7 6 8 8 8 8 8 9 8 8 8 7 7 6 6 6 6 6 5 5 7 6 5 5 5 4 4 4 5
9 5 8 12 14 14 14 8 7 8 4 10 10 3 6 5 5 10 16 20 20 20 22 21 21 21 20 20 19 20 18 17 18 21 21 20 20 20 21 20 18 18 18 18 18 17 16 15 16 17 16 14 14 16 15 15 14 12 13 12 13 11 8 7 7 8 9 7 8 8 8 8 8 7 7 8 8 8 7 7 7 8 7 7 6 6 6 6 6 6 7 6 5 4 3 4 7
4 10 8 6 8 12 9 7 7 5 9 12 13 6 4 4 7 12 13 15 20 19 17 16 18 20 22 21 21 19 18 18 17 18 19 20 18 18 17 18 19 17 16 18 17 17 16 16 17 18 17 15 15 16 16 16 14 13 13 14 14 13 11 10 9 9 9 8 8 8 8 8 8 8 7 7 8 8 8 7 7 7 6 6 6 6 6 7 6 6 6 5 5 6 5 5 4
11 7 10 7 8 4 4 3 3 7 7 9 6 10 8 9 4 6 9 17 25 23 23 22 21 22 20 17 17 20 20 18 17 17 18 18 15 14 16 18 18 18 17 18 17 17 16 16 17 19 17 16 15 16 17 16 15 14 13 14 14 13 12 11 13 13 12 12 11 9 8 7 7 7 7 7 7 8 8 7 7 7 7 7 7 6 6 6 6 6 5 5 5 5 5 5 5
13 7 7 10 3 3 7 3 9 8 7 7 5 7 2 7 7 5 7 10 12 23 23 25 25 23 20 19 20 19 18 17 17 17 17 17 19 18 19 20 18 18 18 20 20 18 17 17 19 19 18 17 17 16 17 17 16 15 14 14 13 12 12 12 12 12 11 11 10 8 8 9 8 7 7 8 8 10 8 8 8 8 8 8 7 6 6 6 6 6 6 5 5 6 7 6 6
12 12 8 8 8 8 6 5 1 2 3 9 5 6 6 4 6 11 10 11 9 15 20 25 25 25 24 22 19 18 17 18 18 18 18 18 18 18 18 19 19 18 20 20 20 18 16 16 18 20 20 18 17 17 18 17 17 16 15 14 13 12 12 12 10 11 11 10 9 10 10 10 9 10 10 10 9 10 9 9 9 9 8 7 8 7 6 6 6 6 6 6 6 6 6 6 6
13 12 12 11 9 6 9 5 11 9 7 8 3 4 6 9 7 4 11 9 9 16 16 22 27 26 26 25 22 21 19 18 17 17 17 18 19 18 17 18 18 18 20 20 18 19 18 18 19 20 19 18 18 18 16 18 16 16 15 14 13 11 12 11 10 9 10 10 9 10 9 8 9 9 10 9 8 9 10 9 9 9 8 8 8 7 7 6 6 6 6 6 6 6 6 6 5
12 12 6 6 13 6 3 5 2 2 2 4 4 6 5 7 3 3 4 7 5 12 19 17 18 19 18 16 17 18 19 19 18 17 18 19 19 19 16 16 17 17 19 19 20 19 18 19 20 21 21 19 18 18 17 18 17 15 15 14 14 13 11 10 9 8 8 10 10 10 10 10 9 8 8 7 8 9 9 9 9 9 9 9 8 8 7 7 6 7 6 6 7 5 7 7 6
10 9 14 13 7 7 1 2 2 4 3 10 2 3 3 4 4 7 4 3 6 9 18 21 21 18 16 16 18 18 18 19 18 18 18 19 18 18 18 18 17 17 18 19 20 20 21 19 19 20 19 17 18 18 18 16 16 15 15 15 13 13 13 13 12 13 12 10 10 10 10 9 8 8 8 8 9 9 9 9 9 9 9 9 9 9 8 7 7 7 7 7 8 6 7 8 6
7 13 11 5 3 3 5 6 1 3 5 5 2 9 3 3 10 4 8 5 9 6 16 20 22 20 18 17 18 19 20 20 22 22 20 20 21 21 19 18 19 20 21 21 21 19 19 19 20 20 19 19 18 17 17 16 15 15 14 14 14 14 14 14 13 12 11 10 9 9 8 7 9 9 9 8 9 10 9 9 9 9 9 9 10 9 9 9 7 7 7 8 8 7 7 6 7
15 14 10 12 7 14 5 3 6 4 5 1 3 5 6 6 7 2 6 11 11 8 13 18 20 19 20 20 20 21 21 19 18 17 16 16 18 19 20 20 20 21 21 21 20 19 17 17 18 20 21 20 20 17 16 14 15 13 12 14 15 14 12 12 11 11 10 10 11 10 11 11 9 8 9 9 9 10 9 9 9 9 9 10 9 10 9 9 8 8 7 7 7 7 8 8 7
9 8 13 8 5 7 7 8 4 6 2 4 4 3 7 5 5 5 12 13 15 13 10 17 21 22 21 20 20 21 19 17 17 18 18 19 20 21 22 21 20 21 19 16 17 16 19 19 19 18 19 18 17 17 16 15 15 14 13 13 13 13 12 11 11 11 11 12 12 11 12 11 12 9 9 10 10 10 10 10 9 10 10 10 10 10 10 9 9 9 8 8 8 8 9 9 8
10 10 9 10 4 2 4 1 4 5 4 4 4 5 5 8 9 16 18 14 13 14 12 16 20 23 23 22 21 19 20 18 17 17 17 18 19 19 19 19 19 18 16 16 17 20 20 18 19 19 20 19 19 18 17 15 14 15 15 15 15 14 14 12 11 11 11 11 11 11 11 11 9 10 9 10 11 11 11 11 10 10 10 10 10 10 9 9 9 10 9 9 8 9 10 9 8
9 10 10 12 10 6 13 8 0 4 3 3 4 9 7 11 9 13 18 16 16 16 15 15 19 22 23 21 22 21 19 18 18 18 18 18 17 18 18 17 15 14 15 17 17 16 16 18 18 19 19 18 19 18 17 16 15 15 17 16 16 14 14 13 13 12 12 12 11 11 11 9 10 11 10 11 11 10 10 11 11 11 11 11 11 11 11 10 10 11 11 8 9 10 10 10 8
Wind_Direction
156 156 146 144 131 146 142 195 234 155 215 293 301 169 116 87 155 146 144 210 211 209 252 25 130 142 239 133 113 114 12 139 289 160 197 137 131 138 144 131 134 134 136 142 151 142 143 150 150 145 138 132 129 129 129 125 123 123 123 120 117 117 116 116 115 114 114 112 112 110 111 112 113 112 110 111 113 116 117 118 119 119 118 117 117 117 113 111 110 109 108 107 106 106 105 104 102
153 154 152 161 155 161 181 230 98 328 194 284 257 55 21 184 125 126 154 202 204 160 143 9 114 99 98 113 139 118 35 9 322 115 65 118 120 131 141 136 141 141 143 145 139 136 143 152 155 146 140 134 132 133 131 127 125 125 124 121 119 119 120 117 118 117 116 115 115 115 116 116 114 112 113 113 114 118 119 118 116 118 120 120 118 118 115 113 113 111 111 109 107 105 105 104 104
154 153 151 154 127 246 69 183 282 89 321 355 269 129 204 81 126 182 169 223 163 122 86 77 88 91 187 146 113 70 240 32 97 98 102 132 126 158 146 140 139 139 143 142 136 139 143 153 157 146 141 137 136 136 133 130 129 127 125 122 122 121 120 122 120 118 119 118 119 119 118 118 116 115 115 117 119 117 118 119 121 120 119 118 119 120 119 119 116 114 110 109 109 108 107 105 104
155 164 158 170 138 99 233 177 168 141 91 289 311 192 191 131 172 192 358 100 87 136 121 116 133 297 198 88 113 89 91 108 94 128 127 155 149 145 145 140 135 135 138 140 143 149 148 155 155 146 143 140 141 139 136 134 132 129 125 125 124 124 124 123 122 124 123 124 122 122 119 113 117 119 120 121 119 120 120 121 117 118 119 120 119 121 119 113 108 108 115 113 112 112 109 107 105
163 174 169 201 171 181 202 219 188 144 61 236 206 60 139 150 168 188 188 195 114 178 119 145 104 50 94 114 163 138 154 97 127 40 123 122 129 141 142 136 137 139 142 143 147 150 159 157 158 147 146 144 143 142 139 136 134 130 128 127 128 127 127 127 127 126 125 126 124 123 122 121 121 123 122 121 120 119 118 119 120 120 119 123 125 120 114 119 119 117 115 117 117 115 113 110 108
159 161 196 351 256 32 303 348 231 204 235 138 250 224 59 128 194 191 137 151 124 282 184 196 144 149 72 9 24 80 131 147 145 110 130 139 140 141 138 138 139 139 140 143 146 152 159 160 157 149 149 147 146 144 141 138 135 132 131 131 132 132 129 129 127 126 126 125 124 123 123 125 131 128 123 118 119 118 115 114 116 119 121 118 118 120 119 116 121 126 124 116 116 116 117 115 113
153 134 168 265 251 241 241 213 258 210 247 195 184 160 157 156 183 157 142 123 287 216 224 130 109 116 87 108 77 87 84 106 127 136 135 139 137 139 139 140 139 138 142 145 147 152 159 161 154 151 150 148 148 146 143 139 136 135 135 137 136 134 130 129 130 129 128 126 126 125 125 128 121 118 122 123 121 116 116 117 116 114 116 118 119 115 115 116 114 113 112 113 116 117 116 117 115
166 180 167 203 284 158 219 247 249 183 176 157 184 160 162 166 170 179 163 174 163 198 173 139 111 94 84 55 93 106 112 93 111 122 128 136 138 138 140 141 138 141 145 145 149 152 160 159 153 153 150 149 149 148 143 141 139 140 142 142 138 135 133 131 131 131 130 128 128 129 130 130 130 130 127 124 122 121 118 117 116 115 114 117 118 117 115 113 110 109 111 113 114 113 113 111 110
174 298 174 282 289 272 289 265 249 237 102 59 133 212 154 165 181 173 177 204 140 160 135 114 138 88 128 97 85 121 85 105 115 125 132 136 139 141 141 142 141 142 144 146 148 153 160 159 155 154 151 151 151 149 146 144 143 146 146 145 141 138 137 136 134 134 134 131 131 133 133 132 129 128 130 126 124 124 123 122 119 117 116 116 114 112 115 115 114 114 114 114 112 112 112 112 112
164 226 166 188 134 322 263 296 33 257 146 152 147 170 141 155 180 208 183 175 174 126 122 111 110 104 115 95 106 99 119 120 126 129 136 138 140 142 141 142 141 140 141 144 147 153 161 158 156 154 152 153 153 151 148 146 147 149 149 148 146 144 141 139 138 137 135 136 134 134 133 132 131 129 127 125 125 125 125 123 119 117 116 116 116 117 116 117 118 120 120 121 120 119 115 112 113
161 188 271 355 13 319 346 317 259 313 62 124 129 301 350 146 151 215 261 164 123 113 103 110 97 114 113 90 70 107 122 132 137 139 142 143 144 143 141 141 139 141 142 143 145 152 156 157 157 156 153 153 155 153 149 149 151 152 152 151 150 148 144 143 141 139 138 137 136 137 136 135 132 130 130 130 129 128 127 123 121 119 118 117 116 116 117 117 117 116 118 119 121 120 119 116 115
156 220 178 163 214 179 245 278 330 95 86 112 98 191 129 186 138 210 249 118 122 123 137 141 136 123 93 111 115 131 131 140 140 141 143 145 146 144 141 139 140 142 141 142 145 146 152 156 156 157 154 154 156 155 152 152 152 155 155 154 153 150 148 147 145 143 142 140 140 139 137 136 136 135 134 132 130 127 124 123 122 122 123 122 121 121 121 118 116 116 114 114 114 117 116 117 117
240 160 144 97 239 123 234 209 267 124 32 239 134 161 95 327 213 303 324 127 135 136 160 145 131 123 114 113 128 133 138 148 146 146 148 150 144 144 138 137 140 142 142 143 145 150 151 154 156 156 155 155 158 157 155 154 155 157 157 157 156 154 154 152 150 148 146 145 144 143 141 140 139 138 137 134 132 129 127 128 128 125 124 125 126 122 120 119 114 113 113 115 116 112 112 115 115
212 186 132 250 230 228 210 195 163 124 290 154 61 98 140 190 235 125 358 157 153 150 126 135 130 114 104 114 139 150 150 151 149 150 151 147 143 142 139 136 139 144 146 146 147 152 153 157 155 154 156 155 161 160 158 155 158 160 159 159 159 158 157 157 154 152 150 149 148 148 146 145 144 143 141 139 136 134 134 131 130 128 128 127 127 128 127 123 120 116 114 115 117 117 117 115 117
225 153 110 228 297 295 217 147 179 129 262 179 157 121 137 255 31 139 147 220 147 121 132 131 136 116 182 155 156 166 158 155 152 152 149 141 143 143 135 137 141 144 146 149 148 152 156 157 154 154 154 156 159 156 159 160 160 162 161 161 162 162 161 160 159 156 154 152 153 152 151 149 148 146 144 141 137 134 133 134 132 133 130 130 131 131 131 130 126 122 125 122 116 118 120 120 124
217 124 63 311 266 297 275 157 104 104 243 196 159 116 159 258 207 166 206 236 143 140 157 137 200 349 159 207 156 152 151 151 153 155 142 141 141 135 134 141 144 147 150 150 153 155 155 157 155 155 154 158 160 155 158 159 164 164 163 164 165 164 165 164 163 160 159 159 158 157 155 154 152 151 148 142 139 138 137 142 142 135 135 133 133 132 128 125 130 136 131 132 130 128 123 126 131
177 200 273 246 281 182 260 99 134 139 169 144 142 146 181 229 202 216 123 222 173 159 175 150 170 135 156 150 145 142 147 150 155 149 143 144 146 146 138 144 146 149 154 159 157 159 160 158 157 155 158 158 157 156 157 158 166 166 165 167 168 168 168 168 166 165 164 165 162 160 159 144 146 162 141 163 147 139 153 158 149 140 140 135 135 132 133 131 137 144 149 143 144 145 133 125 134
134 199 215 251 228 236 243 189 159 163 145 164 170 179 174 224 187 214 149 204 181 157 120 123 103 97 125 129 137 144 148 152 157 148 151 152 153 147 150 153 154 161 161 162 166 162 161 164 161 158 159 161 158 157 161 164 167 166 169 169 170 173 172 170 169 168 166 171 168 164 140 156 165 152 162 169 121 175 175 169 156 155 148 148 144 146 146 159 160 164 161 177 178 138 123 70 29
200 194 183 243 182 228 170 178 130 140 185 159 182 171 183 210 188 211 188 180 155 141 126 126 113 106 120 133 142 148 153 157 158 152 154 156 156 156 156 157 161 158 164 166 168 168 167 163 164 163 163 163 160 160 163 169 167 157 169 170 174 174 179 171 168 174 159 174 161 148 164 178 188 193 183 189 173 191 190 179 177 170 159 154 156 157 166 178 184 176 191 196 197 182 86 105 38
217 193 215 236 218 237 233 150 189 155 157 158 182 188 189 212 201 190 185 164 161 147 143 136 128 135 143 144 147 150 157 157 153 154 156 157 156 160 163 162 164 167 166 169 167 168 168 169 169 167 166 165 163 163 161 169 160 160 167 169 178 168 180 160 174 168 171 177 172 169 174 194 201 199 206 191 185 178 202 191 189 185 180 177 175 182 199 207 213 213 195 203 223 82 66 87 108
191 219 222 232 220 239 254 184 155 148 155 167 182 188 201 212 207 182 172 166 171 153 161 152 148 146 150 151 153 156 157 158 156 159 157 158 160 165 168 166 168 166 166 162 166 171 171 172 169 169 168 168 166 165 165 169 161 163 169 173 174 174 172 163 180 175 182 183 185 185 190 202 198 201 228 236 157 171 205 228 242 202 228 218 193 176 261 298 247 352 327 286 155 160 213 218 182
263 220 230 238 161 217 237 183 173 150 166 159 172 183 203 200 199 192 174 174 177 169 165 154 149 151 151 154 156 157 158 160 162 162 165 164 166 169 166 160 160 160 161 168 173 170 173 174 172 169 169 171 172 171 169 169 163 172 176 180 176 181 170 176 185 189 190 196 191 195 199 203 195 193 210 222 171 164 183 211 220 223 242 236 228 185 207 111 128 63 238 231 234 196 199 204 200
234 252 237 234 225 228 218 176 203 171 178 176 168 190 149 182 191 185 182 175 162 156 152 151 153 157 156 153 156 162 162 164 166 166 165 167 169 171 168 164 164 167 171 172 170 171 171 174 174 170 172 171 175 170 165 169 173 175 178 180 177 184 176 182 195 200 198 200 198 196 193 201 194 188 199 205 191 170 188 205 213 215 221 226 202 172 191 231 176 230 280 238 232 237 211 180 195
235 247 245 237 218 226 202 192 185 182 180 192 187 138 169 174 179 167 179 177 142 144 149 151 150 148 148 154 163 164 165 167 170 169 168 169 171 172 168 166 168 166 168 169 171 170 174 177 174 172 174 172 174 171 170 174 172 173 182 184 186 183 181 193 197 201 199 203 201 201 194 192 193 184 201 203 196 179 200 202 202 209 207 208 192 175 169 213 216 238 248 263 230 243 238 201 197
226 242 243 245 212 218 207 181 179 185 198 204 161 150 160 187 169 172 178 151 139 139 142 146 148 151 158 160 163 160 164 167 168 168 168 168 171 166 165 165 166 169 173 171 170 170 177 175 175 176 174 175 173 171 174 174 175 178 178 188 188 187 189 198 199 200 202 207 205 199 192 188 195 192 194 206 183 194 198 197 190 198 196 201 196 219 180 197 211 216 237 242 227 246 229 225 212
233 240 242 235 215 211 197 184 179 191 201 203 202 196 177 178 181 185 159 146 143 139 142 148 151 156 162 167 166 161 166 169 168 169 172 167 167 166 171 170 169 175 177 170 169 173 174 175 177 179 177 174 173 173 175 175 178 178 184 191 186 189 193 198 199 206 209 201 208 200 195 188 190 193 196 194 187 196 194 189 183 190 192 189 193 208 221 197 211 212 223 211 204 235 252 245 204
223 237 242 242 233 208 192 191 193 194 200 193 207 134 174 175 175 188 150 143 141 142 146 151 156 163 166 167 167 165 166 170 172 169 168 169 171 173 172 172 175 177 172 174 173 172 174 174 180 180 177 175 172 175 175 180 177 183 186 189 183 195 198 196 200 205 207 207 206 201 201 192 192 196 189 189 194 190 189 187 193 191 189 197 188 207 211 212 217 211 201 215 225 221 229 254 178
248 257 268 242 237 225 195 198 198 187 217 191 196 120 205 185 184 160 147 149 146 146 151 156 159 163 168 171 170 164 170 169 170 171 172 173 175 174 174 175 176 175 175 177 175 170 173 179 178 179 179 177 175 176 176 178 182 186 186 186 193 200 199 200 201 199 204 209 202 198 203 204 195 194 184 179 186 187 188 184 194 183 202 203 189 198 202 219 213 219 219 195 201 198 221 215 192
250 247 258 268 243 242 197 203 202 187 212 188 144 92 228 186 186 158 146 146 149 150 155 160 160 162 168 173 173 166 171 173 170 175 178 174 172 174 176 176 174 175 178 176 171 172 176 177 177 180 178 178 181 179 177 180 183 185 187 192 196 201 201 200 201 200 199 204 202 194 198 201 207 183 181 176 180 182 183 172 186 200 194 207 202 195 201 210 195 198 208 212 219 208 11 293 212
239 233 235 256 247 238 221 202 200 194 204 177 134 184 214 190 151 148 148 149 151 151 156 161 161 162 168 174 177 173 172 176 174 176 175 175 174 176 176 174 175 174 173 174 170 176 176 177 177 178 180 180 185 178 177 179 184 187 191 194 197 199 199 196 199 196 196 195 194 192 189 191 190 165 167 168 169 172 171 173 184 200 195 201 202 199 171 172 188 180 226 147 281 5 316 305 343
237 257 205 216 218 242 218 197 194 198 182 176 154 202 227 178 154 154 158 154 156 159 163 163 163 165 170 176 175 180 181 183 181 171 178 176 176 177 176 172 175 174 172 174 176 176 174 177 177 180 181 182 184 180 180 182 184 187 190 193 198 194 193 195 192 189 185 194 187 183 183 185 168 144 157 156 167 164 162 175 190 200 188 185 190 194 172 187 174 190 210 215 358 342 311 286 260
300 324 251 263 193 259 231 200 186 199 189 183 168 225 210 159 160 159 164 162 159 160 164 165 167 168 170 175 177 182 183 184 183 176 179 178 176 177 177 175 177 174 176 177 175 175 177 177 179 180 179 183 188 180 180 182 183 186 187 189 195 194 185 192 195 186 184 186 187 175 179 179 156 148 143 155 158 171 164 178 193 193 182 173 180 180 151 142 188 209 245 145 38 346 335 313 24
232 202 263 250 174 222 290 217 190 194 179 196 197 220 138 146 161 167 165 164 162 160 165 169 169 171 171 174 178 183 179 185 184 185 179 175 179 176 177 174 179 178 176 175 177 178 178 176 178 178 180 184 186 180 176 179 177 182 182 187 190 191 191 191 197 187 175 179 179 172 175 165 165 151 157 153 149 168 171 179 185 186 174 163 163 176 152 157 169 155 301 101 118 344 329 334 340
266 179 215 237 206 200 221 269 204 207 185 197 209 222 201 155 166 167 168 165 163 165 168 172 172 173 175 173 177 181 183 184 188 187 183 174 175 177 176 176 178 178 178 177 179 180 180 177 179 179 179 182 184 182 176 177 180 176 183 183 186 190 197 199 181 174 177 173 171 174 167 165 164 165 166 170 149 164 173 175 178 186 164 155 157 158 171 185 152 171 244 330 118 65 3 354 338
219 220 236 262 247 201 215 202 224 203 198 205 202 220 215 153 167 173 172 170 168 172 171 174 174 174 175 173 177 181 184 187 190 187 182 177 172 176 175 176 180 177 177 178 179 179 179 178 179 179 177 180 183 181 177 175 175 178 182 184 188 193 202 206 172 172 173 170 173 170 169 168 169 168 174 180 163 157 167 172 173 183 158 163 149 159 149 164 139 167 190 303 17 225 348 351 123
210 200 217 234 223 238 225 229 221 178 190 209 203 209 214 158 174 176 173 170 171 173 174 174 176 176 175 176 179 181 184 190 189 185 180 179 177 176 176 176 178 179 176 174 177 180 182 176 178 177 178 179 177 177 174 175 173 179 185 189 192 198 196 201 185 168 168 178 175 171 175 174 171 170 178 181 181 162 168 177 177 173 164 156 152 147 169 157 154 156 203 179 5 358 39 116 136
250 216 226 244 234 249 248 241 225 182 177 206 212 207 214 162 175 174 171 173 171 171 175 179 182 179 178 179 182 184 185 189 185 183 181 181 178 176 177 176 174 177 177 175 176 180 183 181 176 178 177 175 176 177 182 179 179 178 183 189 196 191 191 188 189 169 175 183 181 176 176 176 174 172 177 177 192 176 174 175 172 178 172 167 161 178 189 169 179 169 172 109 112 53 3 101 110
246 249 232 239 236 239 235 240 230 180 197 212 213 212 210 170 174 172 166 168 179 178 181 183 184 183 180 179 181 183 189 185 177 182 185 181 182 177 177 178 173 175 180 178 180 181 182 182 183 177 172 178 182 183 182 184 183 182 179 185 182 185 186 186 195 179 180 183 184 180 178 177 176 176 176 178 188 186 169 174 179 181 176 176 181 157 172 164 151 171 128 95 12 137 241 189 184
246 240 242 259 248 257 278 259 245 193 198 214 203 213 202 175 175 170 168 173 181 183 183 183 183 181 181 182 181 181 180 183 180 183 185 184 183 177 176 179 177 179 177 181 181 179 180 182 183 179 179 178 183 183 181 188 184 177 174 175 178 179 195 188 184 175 174 179 186 185 181 179 177 181 179 177 180 197 179 174 186 182 178 172 158 154 165 158 175 178 159 157 241 324 262 232 173
232 241 238 234 240 229 260 257 253 224 211 194 200 202 208 170 175 174 174 176 184 187 188 185 181 178 179 181 181 181 180 181 185 183 186 185 183 182 177 177 179 178 176 179 178 180 180 182 181 181 183 181 180 184 186 185 183 174 158 157 165 171 181 184 187 189 159 178 185 187 188 181 180 181 182 178 181 192 190 181 178 177 184 175 170 162 174 178 177 172 148 158 126 187 319 282 218
230 233 235 237 240 232 226 255 307 332 271 215 179 200 209 159 174 182 184 184 185 191 192 188 187 182 178 178 178 178 180 182 184 185 185 184 184 185 184 178 175 179 178 178 179 179 182 181 180 180 181 182 181 181 180 172 164 149 144 127 132 122 127 180 186 221 186 186 179 185 193 185 182 182 181 182 182 188 193 178 175 179 176 182 174 166 177 188 186 180 173 162 164 168 212 267 328
223 235 230 231 237 249 245 254 290 300 307 259 177 188 216 186 178 182 184 188 197 195 189 190 187 186 174 176 181 182 184 184 183 185 185 185 185 183 183 178 178 181 180 180 180 180 179 181 178 179 179 181 181 179 175 168 173 169 162 159 163 170 179 186 200 205 199 186 192 185 182 187 185 183 182 182 185 183 190 182 181 175 183 181 180 179 182 177 186 176 192 180 188 198 160 163 134
207 225 227 228 241 248 255 265 225 248 241 280 199 183 223 230 179 187 183 187 193 190 196 192 184 180 180 180 180 182 183 185 187 185 182 183 184 183 183 182 180 181 184 179 180 180 178 178 177 178 179 181 180 177 173 173 172 177 180 180 179 183 185 199 200 203 201 188 173 182 186 186 187 183 184 183 182 183 186 185 187 186 186 183 180 168 183 193 192 191 187 185 194 187 128 174 168
224 211 226 234 238 245 251 254 236 248 267 286 276 205 179 208 205 186 186 189 190 189 198 196 185 180 183 183 183 182 183 183 184 185 184 185 183 183 185 184 180 183 179 177 180 179 177 177 175 178 178 178 179 175 176 177 177 180 183 187 187 189 193 194 191 198 192 167 179 185 180 189 189 187 182 184 182 183 183 187 189 189 186 190 178 186 194 195 188 183 187 200 188 180 172 174 188
215 175 204 233 237 243 254 247 254 255 316 280 308 238 225 209 204 185 185 189 189 192 193 192 188 187 186 186 186 185 184 184 183 183 184 184 186 186 185 184 184 176 174 179 180 180 178 176 175 176 178 177 177 177 177 181 182 183 185 187 190 196 193 190 187 188 189 176 180 182 185 188 188 191 186 182 184 185 186 187 186 189 190 193 187 192 194 188 190 181 191 204 194 202 179 194 158
219 211 195 213 236 249 246 242 243 260 251 256 255 188 242 264 238 184 184 186 185 194 196 190 187 189 189 188 188 186 185 185 188 187 185 185 186 185 185 185 179 177 177 178 178 177 178 176 176 175 178 177 177 179 179 181 183 183 187 191 194 190 184 181 178 186 194 182 184 185 187 184 188 190 191 186 183 185 188 185 189 193 194 193 190 194 189 192 195 192 191 196 193 200 205 187 185
186 212 246 243 228 236 242 225 210 242 240 244 244 205 210 255 246 190 173 194 184 192 197 193 190 192 192 189 184 183 185 187 189 189 188 187 185 183 179 181 184 178 175 175 176 178 177 177 178 179 179 178 177 180 181 183 182 186 191 193 194 189 182 177 180 190 193 190 189 188 185 190 187 191 186 189 187 185 187 188 192 197 194 195 194 189 194 194 196 198 197 192 190 194 196 198 189
198 190 212 243 274 292 283 245 140 213 235 249 219 204 195 239 281 267 216 184 189 182 185 190 193 197 195 191 188 186 185 185 185 186 189 187 181 178 180 184 182 178 173 175 177 176 176 179 179 181 181 179 180 182 183 185 185 188 193 194 195 192 183 182 186 190 190 194 192 185 187 181 192 192 190 184 190 188 185 192 194 191 195 197 201 193 195 196 195 199 200 193 196 192 187 188 173
200 196 195 197 234 199 247 198 219 208 202 248 191 174 243 238 216 229 212 229 195 187 184 187 190 194 193 191 189 186 186 182 183 187 186 186 187 182 182 184 179 178 177 177 177 176 176 178 180 180 183 181 182 182 186 187 187 189 191 194 196 193 191 189 189 190 190 191 191 183 176 190 187 187 195 192 193 189 187 189 191 193 197 199 203 194 195 194 193 196 203 201 197 189 190 185 177
195 199 188 174 201 207 226 251 245 213 248 236 211 182 228 225 272 222 231 222 178 197 189 182 185 189 190 191 189 184 184 184 186 186 187 187 188 187 183 182 182 179 179 178 177 177 176 178 180 182 185 184 183 184 186 187 192 192 191 192 194 192 195 194 192 191 191 191 187 190 186 187 188 194 190 199 192 188 190 193 193 197 197 196 201 201 194 195 193 195 198 202 203 200 185 186 189
199 200 191 198 194 184 204 189 209 208 201 253 185 181 219 164 233 221 216 220 188 177 191 188 188 188 189 189 184 180 182 186 186 187 186 186 188 186 184 184 183 181 180 179 178 179 177 179 181 184 183 185 183 186 186 189 192 194 193 193 192 193 196 197 196 193 189 189 189 190 191 188 193 196 195 198 188 190 192 190 193 194 196 198 200 202 199 197 197 195 197 202 200 193 195 187 191
203 198 187 183 220 121 163 207 141 185 140 243 219 202 183 167 239 256 225 231 195 172 177 192 200 196 188 179 181 184 184 184 186 188 187 188 186 186 185 185 185 183 180 180 180 178 180 182 183 185 184 182 184 185 187 190 192 192 193 193 194 194 197 198 198 194 194 192 190 190 191 192 196 193 195 187 194 191 191 193 192 195 194 197 199 200 199 197 197 192 197 196 202 188 192 195 199
188 184 208 213 136 174 198 320 250 110 118 238 210 277 268 299 311 239 236 284 237 159 178 180 190 195 182 183 186 188 186 185 185 188 190 187 185 187 186 185 185 183 182 184 183 181 182 181 183 185 185 183 185 186 188 190 191 191 194 195 194 196 196 197 198 198 194 193 192 193 191 193 187 189 191 192 191 194 193 190 193 194 193 197 200 201 200 200 194 195 194 197 203 193 190 200 194
151 203 207 117 145 115 173 206 288 173 170 249 223 226 303 141 251 277 234 213 252 171 179 182 186 184 179 188 189 189 189 188 189 190 188 186 185 186 186 187 186 185 185 186 185 183 181 180 182 184 185 187 188 186 187 188 189 192 194 196 198 198 199 201 201 200 195 189 196 197 192 181 192 191 189 191 191 194 194 192 193 195 194 195 201 203 201 201 193 196 197 199 202 189 194 199 200
191 202 137 179 155 210 193 142 217 182 207 238 289 217 244 191 240 300 209 221 233 223 183 177 184 179 184 188 191 192 192 189 189 187 185 186 188 187 187 188 187 188 188 186 182 179 180 182 184 184 187 189 188 188 188 188 188 190 193 195 197 199 202 203 203 199 193 196 197 197 197 198 191 184 187 189 191 195 193 195 195 197 194 197 200 204 204 203 199 201 198 201 199 194 196 200 204
198 130 179 162 152 199 164 197 156 135 234 165 290 185 239 208 216 212 239 218 214 222 168 184 180 182 187 187 190 192 191 189 187 188 186 187 189 188 187 187 187 188 186 182 179 180 182 183 182 187 189 188 187 189 188 189 189 189 193 193 196 200 202 203 202 196 197 199 199 197 201 199 198 188 189 188 192 195 195 194 197 196 197 198 199 204 203 204 201 206 201 201 201 195 202 205 204
185 175 181 184 202 170 131 277 176 163 168 188 175 234 261 251 216 221 225 220 220 210 189 185 182 184 185 186 190 189 189 190 189 187 186 189 189 189 188 189 191 188 183 180 180 184 185 183 186 186 186 187 188 190 188 191 187 192 191 193 195 196 199 200 202 202 203 204 201 200 201 204 195 197 190 190 193 196 196 197 195 198 198 199 200 202 203 204 204 208 206 203 199 198 204 210 202
195 177 187 186 159 135 189 246 189 174 120 195 169 237 258 245 221 219 221 219 218 214 202 178 185 182 182 187 190 185 187 188 188 187 187 188 188 188 188 189 186 184 186 186 186 186 183 187 189 187 186 187 189 189 191 190 190 192 194 195 195 196 198 197 200 202 205 204 203 202 202 197 198 203 196 198 197 195 197 197 198 201 201 202 202 203 202 202 207 210 211 204 202 200 207 211 203